STARLINK-5071 (55402 NORAD) Tracking and Keplerian Element Data

This shows tracking and keplerian element data for the satellite.

Feedback or suggestion? Click here.




ElementValue
Catalog55402
NameSTARLINK-5071
Epoch Orbit1514
Epoch Day126.87435609
Epoch Year2023
RAAN182.063
Inclination69.9983
Eccentricity0.0003394
Argument of Perigee268.645
Mean Anonmoly91.4357
Mean Motion15.69934985
Decay Rate4.194E-05
L11 55402U 23014M 23126.87435609 .00004194 00000+0 36619-4 0 9998
L22 55402 69.9983 182.0630 0003394 268.6450 91.4357 15.69934985 15141



Live tracking and technical data element details for STARLINK-5071 (NORAD 55402). STARLINK-5071 can be tracked NOW for your location showing map with azimuth and elevation plus other details from your city location.







IsCatalogInMostPopularTable: catalog: 55402, numindb: 1
Update: records affected: 1



GetName: 55402 STARLINK-5071

Hit Count: updated at: Sun, 28 May 2023 07:27:37 GMT